Corona, CA

2:52 PM PDT on April 24, 2017 (GMT -0700)
Corona Municipal

Weather History for KAJO - August, 2013

Change the Weather History Date:

Friday, August 23, 2013

  Actual Average (KCNO) Record (KCNO)
Temperature  
Mean Temperature 74 °F -  
Max Temperature 93 °F 91 °F 105 °F (1998)
Min Temperature 54 °F 58 °F 54 °F (2002)
Cooling Degree Days 8    
Growing Degree Days 24 (Base 50)    
Moisture  
Dew Point 52 °F    
Average Humidity 47    
Maximum Humidity 77    
Minimum Humidity 23    
Precipitation  
Precipitation 0.00 in - - ()
Sea Level Pressure  
Sea Level Pressure 29.79 in    
Wind  
Wind Speed 4 mph (West)    
Max Wind Speed 16 mph    
Max Gust Speed 20 mph    
Visibility 10 miles    
Events      
Averages and records for this station are not official NWS values.
T = Trace of Precipitation, MM = Missing Value Source: NWS Daily Summary

Daily Weather History Graph

Daily Weather History Graph

Search for Another Location

Airport or City:

Trip Planner

Search our weather history database for the weather conditions in past years. The results will help you decide how hot, cold, wet, or windy it might be!

Date:

Astronomy

Aug. 23, 2013 Rise Set
Actual Time 6:18 AM PDT 7:27 PM PDT
Civil Twilight 5:52 AM PDT 7:53 PM PDT
Nautical Twilight 5:21 AM PDT 8:23 PM PDT
Astronomical Twilight 4:49 AM PDT 8:55 PM PDT
Moon 9:01 PM PDT (8/23) 9:07 AM PDT (8/23)
Length of Visible Light 14h 00m
Length of Day
13h 09m
Waning Gibbous, 91% of the Moon is Illuminated
Aug 23
Waning Gibbous
Aug 28
Last Quarter
Sep 5
New
Sep 12
First Quarter
Sep 19
Full

Hourly Weather History & Observations

Time (PDT) Temp. Heat Index Dew Point Humidity Pressure Visibility Wind Dir Wind Speed Gust Speed Precip Events Conditions
12:56 AM 64.9 °F - 48.9 °F 56% 29.85 in 10.0 mi Calm Calm - N/A   Clear
1:56 AM 63.0 °F - 47.8 °F 58% 29.84 in 10.0 mi Calm Calm - N/A   Clear
2:56 AM 66.9 °F - 50.9 °F 56% 29.84 in 10.0 mi West 3.5 mph - N/A   Clear
3:56 AM 59.9 °F - 47.8 °F 64% 29.83 in 10.0 mi Calm Calm - N/A   Clear
4:56 AM 56.8 °F - 47.8 °F 72% 29.83 in 10.0 mi Calm Calm - N/A   Clear
5:56 AM 54.9 °F - 47.8 °F 77% 29.84 in 10.0 mi Calm Calm - N/A   Clear
6:56 AM 59.0 °F - 50.0 °F 72% 29.85 in 10.0 mi Calm Calm - N/A   Clear
7:56 AM 66.9 °F - 50.9 °F 56% 29.85 in 10.0 mi Calm Calm - N/A   Clear
8:56 AM 74.8 °F - 50.0 °F 42% 29.84 in 10.0 mi Calm Calm - N/A   Clear
9:56 AM 79.9 °F - 52.0 °F 38% 29.83 in 10.0 mi Variable 3.5 mph - N/A   Clear
10:56 AM 86.0 °F - 47.8 °F 27% 29.82 in 10.0 mi NW 4.6 mph - N/A   Clear
11:56 AM 90.0 °F - 50.9 °F 26% 29.80 in 10.0 mi West 8.1 mph - N/A   Clear
12:56 PM 93.9 °F 92.0 °F 54.9 °F 27% 29.77 in 10.0 mi West 11.5 mph - N/A   Clear
1:56 PM 92.8 °F 90.6 °F 54.0 °F 27% 29.75 in 10.0 mi WNW 12.7 mph - N/A   Clear
2:56 PM 92.8 °F - 50.9 °F 24% 29.73 in 10.0 mi West 12.7 mph - N/A   Clear
3:56 PM 92.8 °F - 50.0 °F 23% 29.71 in 10.0 mi West 16.1 mph - N/A   Clear
4:56 PM 91.9 °F - 50.9 °F 25% 29.70 in 10.0 mi West 12.7 mph 19.6 mph N/A   Clear
5:56 PM 88.0 °F - 52.0 °F 29% 29.71 in 10.0 mi WNW 13.8 mph 19.6 mph N/A   Clear
6:56 PM 83.8 °F - 50.9 °F 32% 29.71 in 10.0 mi West 15.0 mph 19.6 mph N/A   Clear
7:56 PM 79.9 °F - 54.0 °F 41% 29.73 in 4.0 mi West 10.4 mph 18.4 mph N/A   Haze
8:56 PM 77.0 °F - 55.9 °F 48% 29.75 in 10.0 mi West 10.4 mph - N/A   Clear
9:56 PM 72.9 °F - 57.9 °F 59% 29.79 in 10.0 mi West 4.6 mph - N/A   Clear
10:56 PM 68.9 °F - 59.0 °F 71% 29.80 in 10.0 mi West 4.6 mph - N/A   Clear
11:56 PM 68.0 °F - 57.9 °F 70% 29.80 in 10.0 mi West 3.5 mph - N/A   Clear